Date,TemperatureHighF,TemperatureAvgF,TemperatureLowF,DewpointHighF,DewpointAvgF,DewpointLowF,HumidityHigh,HumidityAvg,HumidityLow,PressureMaxIn,PressureMinIn,WindSpeedMaxMPH,WindSpeedAvgMPH,GustSpeedMaxMPH,PrecipitationSumIn
2013-1-1,37.9,30.2,22.1,37.9,27.8,17.5,100,90,79,30.36,30.10,12,2,12,0.00
2013-1-2,37.9,27.3,17.3,26.5,20.8,13.8,91,77,60,30.38,30.26,12,1,13,0.00
2013-1-3,44.3,32.6,25.0,28.8,24.1,20.6,94,73,43,30.52,30.36,12,1,13,0.01
2013-1-4,48.8,34.6,22.7,27.2,23.0,20.0,93,66,35,30.54,30.38,12,2,14,0.00
2013-1-5,47.6,39.9,33.1,32.7,29.1,22.1,81,66,50,30.37,30.22,17,2,21,0.00
2013-1-6,47.3,37.2,28.5,27.9,20.9,16.5,82,54,29,30.48,30.32,10,2,14,0.00
2013-1-7,51.9,39.5,27.6,29.1,24.3,18.0,70,55,38,30.40,30.15,12,1,14,0.00
2013-1-8,56.2,43.7,32.4,45.8,33.9,24.0,100,70,44,30.23,30.08,13,1,14,0.14
2013-1-9,53.3,49.4,45.4,48.0,44.2,38.0,100,84,58,30.36,30.19,10,3,12,0.03
2013-1-10,55.1,50.9,48.6,55.1,49.3,42.5,100,95,73,30.19,29.83,16,3,17,0.21
2013-1-11,68.9,56.0,45.1,48.5,45.4,42.4,100,71,41,29.89,29.70,22,4,24,0.00
2013-1-12,60.2,38.8,25.3,48.8,28.5,19.2,93,70,26,30.16,29.79,21,3,22,0.18
2013-1-13,29.7,24.0,18.1,19.5,15.2,9.9,79,69,56,30.47,30.08,7,0,8,0.00
2013-1-14,33.1,24.8,18.8,16.6,13.8,9.8,79,64,43,30.57,30.40,12,2,14,0.00
2013-1-15,34.4,26.2,19.7,19.1,14.1,8.8,82,62,37,30.41,30.26,12,1,12,0.00
2013-1-16,47.4,32.3,18.8,18.4,15.0,11.2,79,51,27,30.30,30.17,12,1,12,0.01
2013-1-17,52.6,40.5,30.1,31.7,25.9,16.5,80,57,35,30.53,30.26,14,2,14,0.00
2013-1-18,58.0,44.3,30.4,33.2,28.4,23.7,78,56,31,30.54,30.22,22,3,24,0.00
2013-1-19,65.6,51.4,41.1,36.5,33.8,31.7,72,52,30,30.23,30.10,17,3,18,0.00
2013-1-20,62.9,47.2,32.4,41.5,29.8,14.5,67,51,42,30.34,30.14,19,2,21,0.00
2013-1-21,40.8,31.3,24.2,17.9,12.7,8.4,60,47,28,30.49,30.33,14,3,16,0.00
2013-1-22,52.3,35.8,22.2,27.7,21.0,13.9,72,56,35,30.39,30.23,14,2,14,0.00
2013-1-23,61.8,45.1,31.2,42.8,33.2,22.7,78,63,45,30.31,30.16,10,1,11,0.00
2013-1-24,44.9,39.4,35.3,36.1,22.6,17.9,71,51,40,30.33,30.15,12,3,14,0.00
2013-1-25,49.2,39.1,31.9,29.0,24.4,20.0,67,56,43,30.30,30.17,10,1,11,0.00
2013-1-26,54.4,44.6,33.4,35.2,28.9,24.5,76,55,38,30.30,30.13,17,3,17,0.00
2013-1-27,59.6,52.7,44.9,57.3,49.6,33.7,100,89,64,30.13,29.89,17,5,22,0.00
2013-1-28,74.2,67.3,57.5,62.8,61.2,56.5,98,81,64,29.94,29.75,22,6,28,0.00
2013-1-29,70.8,57.8,41.2,63.0,54.4,36.1,100,89,70,29.76,29.44,25,5,32,1.11
2013-1-30,41.3,36.6,28.1,37.1,25.8,16.2,85,65,48,30.14,29.63,27,6,27,0.00
2013-1-31,49.4,32.6,21.4,28.7,20.3,8.6,79,62,37,30.53,30.08,24,3,24,0.00
2013-2-1,42.5,29.0,16.2,20.1,10.0,-0.1,59,46,27,30.54,30.23,12,2,13,0.00
2013-2-2,58.0,42.9,29.1,31.9,26.0,19.0,71,52,33,30.33,30.22,11,1,12,0.00
2013-2-3,56.5,47.4,37.3,30.4,24.6,18.5,65,42,26,30.35,29.96,13,2,14,0.00
2013-2-4,66.3,54.9,42.2,39.1,32.6,27.1,66,44,26,29.99,29.83,12,2,14,0.00
2013-2-5,67.4,49.1,31.2,42.0,32.7,27.3,89,58,25,30.08,29.93,7,1,10,0.00
2013-2-6,65.0,53.6,42.3,49.1,39.4,31.8,75,59,47,30.09,29.92,17,3,18,0.00
2013-2-7,60.5,51.2,41.2,54.0,46.8,35.9,99,85,71,30.19,29.86,14,3,18,0.02
2013-2-8,49.5,40.6,32.7,36.0,31.8,28.1,90,72,48,30.38,30.19,14,2,19,0.01
2013-2-9,43.5,40.3,37.9,42.4,34.9,30.9,100,81,64,30.21,29.78,17,5,18,0.06
2013-2-10,61.0,51.4,40.2,52.0,34.1,21.1,100,58,23,30.09,29.67,24,5,25,0.23
2013-2-11,52.5,42.0,32.5,25.5,23.3,19.7,69,49,29,30.27,30.09,12,1,17,0.00
2013-2-12,42.2,37.6,32.7,37.9,30.3,23.9,100,77,53,30.17,30.00,10,2,12,0.00
2013-2-13,55.1,42.0,32.9,36.1,32.5,26.6,100,73,35,30.11,29.98,14,2,14,0.02
2013-2-14,59.2,46.6,35.0,34.5,28.9,22.9,64,51,35,30.25,30.01,14,2,16,0.00
2013-2-15,44.6,36.0,28.7,29.6,16.8,7.8,74,48,24,30.46,30.25,14,2,17,0.00
2013-2-16,44.3,34.6,24.8,25.2,14.3,5.3,77,45,24,30.46,30.13,13,2,14,0.00
2013-2-17,68.8,51.4,34.9,33.0,27.4,18.5,67,42,22,30.13,29.78,21,4,25,0.00
2013-2-18,60.9,53.2,36.9,50.0,36.9,22.7,73,55,36,30.19,29.65,29,8,31,0.00
2013-2-19,49.6,38.6,26.7,23.5,20.7,18.1,74,50,29,30.41,30.19,12,2,13,0.00
2013-2-20,36.9,33.7,31.2,33.4,28.1,17.7,100,83,47,30.34,30.06,13,3,16,0.15
2013-2-21,34.9,32.6,26.9,34.9,31.0,18.1,100,94,70,30.06,29.73,17,4,19,0.76
2013-2-22,37.8,28.6,20.6,19.6,16.8,13.8,76,62,45,30.22,30.02,17,3,19,0.02
2013-2-23,45.7,32.2,20.2,23.5,18.9,14.7,80,60,36,30.20,29.99,6,1,7,0.00
2013-2-24,57.8,44.4,31.2,38.6,30.8,22.0,75,60,42,30.02,29.79,19,4,19,0.00
2013-2-25,44.1,38.5,32.5,38.2,34.8,31.5,100,88,64,29.86,29.50,21,6,22,0.57
2013-2-26,40.9,36.0,32.2,33.4,30.8,27.6,100,82,66,29.97,29.53,20,5,24,0.30
2013-2-27,46.7,36.5,31.0,30.2,26.5,22.5,85,68,40,30.21,29.97,24,5,26,0.00
2013-2-28,46.0,36.7,30.3,28.7,26.1,23.6,80,66,50,30.28,30.20,16,4,19,0.00
2013-3-1,37.5,34.3,30.0,25.6,22.3,14.4,69,61,51,30.39,30.25,16,3,17,0.00
2013-3-2,46.0,35.2,26.3,19.2,17.1,13.5,67,49,29,30.45,30.24,14,2,16,0.00
2013-3-3,62.6,47.4,31.6,32.3,24.9,18.0,62,43,27,30.24,29.71,17,4,21,0.00
2013-3-4,72.3,57.2,44.2,42.7,37.5,31.0,69,50,28,29.98,29.58,21,3,26,0.00
2013-3-5,48.6,40.9,34.7,36.0,21.8,13.0,89,49,27,30.42,29.98,26,6,31,0.00
2013-3-6,49.8,37.8,25.6,25.2,19.0,15.1,70,48,27,30.50,30.26,10,1,11,0.00
2013-3-7,64.5,50.9,36.5,29.7,26.4,23.8,65,41,23,30.28,30.11,17,4,19,0.00
2013-3-8,58.3,52.6,46.5,41.7,35.0,28.0,69,51,41,30.21,29.99,18,5,19,0.00
2013-3-9,62.6,57.8,53.1,58.7,48.4,34.9,100,73,42,29.99,29.68,25,4,25,0.10
2013-3-10,55.1,41.8,31.6,54.5,35.7,21.4,100,79,65,30.09,29.65,24,7,24,0.04
2013-3-11,52.2,38.6,28.4,23.2,18.6,8.5,74,48,17,30.10,30.01,17,4,19,0.00
2013-3-12,59.3,47.4,37.0,36.7,24.8,14.8,70,42,24,30.39,30.08,17,2,21,0.00
2013-3-13,55.0,43.1,30.1,24.5,21.2,15.9,71,44,25,30.55,30.38,10,1,12,0.00
2013-3-14,77.4,58.8,41.2,41.7,32.9,21.8,54,39,25,30.38,30.09,20,4,22,0.00
2013-3-15,82.2,67.3,52.2,50.4,44.4,40.8,72,47,25,30.11,29.75,24,5,27,0.00
2013-3-16,73.7,62.0,48.0,50.7,44.3,37.3,68,53,41,29.86,29.72,19,4,22,0.00
2013-3-17,47.9,43.0,40.3,44.3,40.6,35.3,100,91,68,29.88,29.74,18,3,18,0.00
2013-3-18,60.7,47.6,39.1,42.8,33.9,22.0,100,66,26,30.08,29.73,16,2,17,0.01
2013-3-19,59.6,48.5,38.5,29.2,25.1,16.3,62,42,24,30.29,30.05,14,3,18,0.00
2013-3-20,51.4,42.3,33.1,32.9,23.3,12.0,87,51,25,30.45,30.11,17,3,17,0.00
2013-3-21,41.2,38.3,35.2,34.3,26.1,18.4,88,62,41,30.11,29.79,22,6,22,0.00
2013-3-22,45.7,40.3,35.6,37.8,36.3,33.2,100,86,70,29.96,29.83,12,2,12,0.32
2013-3-23,42.3,40.2,37.5,42.3,39.0,34.1,100,96,81,29.95,29.77,14,2,24,0.05
2013-3-24,39.8,34.4,30.4,37.3,25.1,16.6,100,70,42,30.25,29.82,30,7,30,0.05
2013-3-25,38.5,32.8,27.8,21.3,17.4,12.1,71,53,36,30.45,30.24,22,5,24,0.00
2013-3-26,50.8,38.4,22.2,22.1,18.7,15.1,78,47,26,30.53,30.33,11,1,12,0.00
2013-3-27,66.0,50.3,34.7,31.8,25.6,20.6,61,40,25,30.34,30.12,18,4,21,0.00
2013-3-28,72.8,59.6,47.1,51.1,41.2,27.0,65,51,37,30.21,30.07,20,3,20,0.00
2013-3-29,68.8,61.3,54.8,58.1,53.9,49.0,100,77,65,30.15,30.07,12,2,14,0.18
2013-3-30,75.3,63.2,54.1,60.5,55.9,50.5,100,78,57,30.10,29.82,17,3,17,0.38
2013-3-31,70.4,60.7,51.7,57.9,47.0,40.0,100,64,34,30.02,29.88,19,2,20,0.00
2013-4-1,61.2,51.1,44.1,44.0,39.5,28.5,81,65,47,30.20,29.99,17,3,19,0.00
2013-4-2,44.1,39.7,37.0,39.9,35.7,27.8,100,87,56,30.29,30.19,16,5,16,0.14
2013-4-3,44.8,40.5,38.2,39.2,33.2,27.6,99,76,51,30.29,30.21,13,2,13,0.27
2013-4-4,59.3,47.6,38.2,39.8,36.1,30.2,100,69,35,30.24,30.12,14,2,14,0.20
2013-4-5,70.1,55.9,39.3,43.8,40.4,36.3,93,60,31,30.24,29.96,17,2,17,0.00
2013-4-6,76.5,64.9,55.3,51.1,47.4,42.3,69,54,36,29.95,29.78,30,5,33,0.00
2013-4-7,66.3,63.0,57.2,58.2,55.4,49.9,88,77,64,29.89,29.72,19,3,30,0.00
2013-4-8,73.9,67.4,61.8,61.8,59.0,56.1,98,75,62,29.77,29.65,19,4,24,0.00
2013-4-9,79.2,71.0,48.3,64.4,59.9,41.4,81,68,54,29.81,29.64,24,4,28,0.00
2013-4-10,48.0,38.5,35.5,41.2,35.3,29.9,97,88,78,30.01,29.80,22,6,28,0.60
2013-4-11,55.9,43.0,33.7,32.2,27.9,23.5,80,57,33,30.01,29.81,17,4,24,0.00
2013-4-12,62.7,49.3,36.2,36.2,30.8,26.1,81,52,28,30.07,29.86,16,2,17,0.00
2013-4-13,72.0,57.9,46.5,50.0,42.9,34.6,86,58,41,30.08,29.75,14,2,19,0.02
2013-4-14,80.5,68.5,56.9,57.9,49.9,45.0,69,53,35,29.75,29.49,24,4,28,0.00
2013-4-15,75.4,61.6,53.5,57.8,45.4,34.7,75,56,41,29.88,29.68,19,4,19,0.00
2013-4-16,60.9,53.0,50.2,51.2,46.8,41.3,97,79,68,30.01,29.84,12,3,17,0.00
2013-4-17,81.4,68.9,51.4,70.3,61.3,47.8,97,78,59,29.95,29.53,20,3,22,0.00
2013-4-18,65.3,46.1,40.5,65.0,38.0,23.0,100,75,49,30.14,29.51,25,8,27,2.00
2013-4-19,62.3,47.8,34.7,34.1,25.9,18.1,65,45,22,30.21,30.07,20,5,24,0.00
2013-4-20,71.5,58.0,45.2,39.8,34.8,28.4,63,44,21,30.20,30.05,16,2,17,0.00
2013-4-21,70.3,60.8,54.1,44.0,40.2,34.4,62,48,28,30.24,30.10,17,3,17,0.00
2013-4-22,75.6,63.6,50.7,51.9,45.2,39.4,68,52,39,30.16,29.86,19,3,21,0.00
2013-4-23,67.3,44.5,36.3,55.5,41.0,31.4,100,89,51,30.27,29.82,19,4,19,0.03
2013-4-24,57.3,44.9,33.4,31.4,27.6,19.9,88,54,28,30.37,30.25,16,2,17,0.00
2013-4-25,70.3,55.8,38.2,37.0,30.7,25.4,73,42,20,30.40,30.19,12,1,12,0.00
2013-4-26,61.3,55.1,52.0,53.1,46.9,37.3,100,77,41,30.22,30.09,18,3,19,0.06
2013-4-27,56.0,53.7,51.3,53.2,50.9,48.4,100,91,77,30.14,30.01,14,2,17,0.06
2013-4-28,79.4,63.7,48.8,59.0,52.5,45.4,94,69,43,30.08,29.84,12,1,12,0.00
2013-4-29,87.4,73.8,60.5,62.4,56.0,48.9,88,58,29,29.86,29.71,21,4,24,0.00
2013-4-30,83.6,74.2,64.3,60.0,54.9,45.8,73,53,28,29.82,29.73,21,4,24,0.00
2013-5-1,83.0,73.1,63.7,64.2,59.3,51.7,84,63,43,30.06,29.81,17,3,19,0.00
2013-5-2,65.5,43.0,35.2,49.4,38.1,33.7,97,83,62,30.44,30.06,22,5,22,0.00
2013-5-3,59.5,47.4,35.3,34.6,29.1,21.3,95,55,24,30.42,30.00,26,4,27,0.00
2013-5-4,47.6,43.9,39.1,44.5,38.8,31.6,96,83,58,30.09,29.94,17,2,17,0.00
2013-5-5,59.8,50.5,43.5,48.5,44.8,39.1,99,82,64,30.17,30.08,12,1,14,0.00
2013-5-6,68.9,55.0,46.0,53.6,49.9,45.6,100,84,53,30.17,30.03,10,1,10,0.01
2013-5-7,77.4,64.4,49.1,55.6,51.6,43.6,100,68,32,30.11,29.96,10,1,10,0.00
2013-5-8,83.2,70.7,59.5,61.8,54.5,48.2,80,58,38,30.02,29.86,22,3,22,0.00
2013-5-9,73.0,64.8,58.1,67.1,62.1,54.7,100,92,68,29.97,29.84,24,2,30,0.53
2013-5-10,73.0,64.2,57.5,65.2,57.5,50.5,100,81,51,30.09,29.92,12,2,14,0.40
2013-5-11,77.7,63.2,50.7,58.4,48.3,33.7,100,63,28,30.24,30.09,17,2,18,0.00
2013-5-12,70.4,59.4,45.1,44.8,38.5,30.7,74,48,27,30.32,30.14,10,1,11,0.00
2013-5-13,88.4,71.8,55.6,58.1,49.4,41.5,65,47,28,30.15,30.00,14,2,21,0.00
2013-5-14,88.4,77.1,63.7,60.2,52.4,46.9,59,43,27,30.04,29.90,21,4,24,0.00
2013-5-15,74.6,69.7,63.4,68.9,62.4,51.3,100,79,49,29.95,29.80,14,3,17,0.44
2013-5-16,74.4,66.8,62.0,65.4,63.0,60.8,100,88,69,29.88,29.80,10,1,16,0.01
2013-5-17,80.9,69.9,59.5,69.8,65.5,59.5,100,87,65,29.92,29.84,7,1,10,0.00
2013-5-18,87.0,77.7,69.9,74.6,71.5,69.2,100,82,63,29.87,29.72,13,3,17,0.00
2013-5-19,82.0,75.9,65.6,70.9,67.0,60.4,97,75,61,29.87,29.58,28,4,31,0.00
2013-5-20,83.4,75.1,69.6,72.0,68.8,64.7,100,81,66,29.77,29.62,19,2,30,0.12
2013-5-21,69.8,62.5,57.8,65.6,60.1,56.7,100,92,81,29.92,29.66,19,2,21,0.57
2013-5-22,80.3,66.9,54.4,58.1,55.8,52.7,100,71,40,29.93,29.83,12,2,14,0.01
2013-5-23,68.8,62.7,59.5,62.4,58.4,53.7,100,87,64,30.16,29.92,19,1,36,0.15
2013-5-24,78.3,68.4,57.8,66.3,61.1,56.1,100,79,64,30.23,30.11,16,3,17,0.01
2013-5-25,83.8,73.0,62.9,68.9,62.4,54.8,87,70,56,30.19,30.00,14,3,18,0.00
2013-5-26,84.1,75.5,67.9,70.6,66.9,62.6,92,76,61,30.07,29.92,18,3,21,0.00
2013-5-27,83.8,76.5,68.9,70.4,67.4,62.3,99,74,60,29.94,29.71,26,4,26,0.00
2013-5-28,81.6,76.9,72.7,68.4,66.6,64.9,83,71,60,29.80,29.71,21,4,22,0.00
2013-5-29,78.8,74.3,65.3,69.2,66.2,60.6,98,76,68,29.82,29.68,26,3,26,0.08
2013-5-30,83.0,71.9,63.7,73.6,68.7,63.3,100,90,69,29.77,29.65,24,4,28,0.17
2013-5-31,87.4,79.2,72.0,74.5,72.0,70.1,100,80,63,29.75,29.58,21,4,24,0.02
2013-6-1,80.7,70.9,64.0,70.2,61.4,53.6,100,75,44,30.02,29.65,18,2,21,0.00
2013-6-2,71.5,64.0,57.5,57.6,54.7,50.3,87,72,57,30.10,30.01,13,1,13,0.00
2013-6-3,80.3,67.5,53.8,65.3,59.2,53.3,100,76,53,30.05,29.85,10,2,14,0.00
2013-6-4,80.1,72.2,65.0,68.7,65.3,60.9,100,80,64,29.98,29.78,19,3,25,0.01
2013-6-5,82.6,72.6,65.2,67.9,66.1,63.3,100,81,57,29.99,29.85,17,2,17,0.00
2013-6-6,77.6,69.5,62.9,65.4,59.5,51.9,100,73,44,29.97,29.91,13,2,14,0.00
2013-6-7,80.7,69.5,58.4,59.5,56.0,51.5,88,64,40,30.01,29.90,10,1,13,0.00
2013-6-8,82.2,73.4,63.2,63.3,58.1,52.9,74,60,43,29.93,29.77,17,2,17,0.00
2013-6-9,88.6,77.8,67.4,65.1,60.5,52.1,80,57,32,29.90,29.77,18,2,18,0.00
2013-6-10,92.9,82.0,71.3,71.1,66.3,59.4,80,60,39,29.91,29.82,19,4,21,0.00
2013-6-11,93.4,84.0,73.2,72.1,68.2,64.1,79,60,40,29.94,29.85,19,4,21,0.00
2013-6-12,92.5,84.1,75.4,73.6,70.1,66.6,85,64,46,29.94,29.86,28,6,28,0.00
2013-6-13,92.3,82.4,75.1,73.8,70.5,67.9,87,68,52,30.01,29.90,12,1,14,0.00
2013-6-14,94.3,84.1,73.9,76.4,72.1,67.7,83,68,48,29.98,29.86,13,2,14,0.00
2013-6-15,87.2,78.1,72.8,75.8,72.6,66.7,97,84,63,29.99,29.92,17,2,18,0.00
2013-6-16,89.9,75.6,68.8,75.9,71.1,63.9,100,87,58,29.99,29.88,29,1,29,0.20
2013-6-17,77.6,71.1,66.1,70.6,67.2,63.6,100,88,70,30.00,29.85,14,1,19,0.90
2013-6-18,85.9,75.9,66.1,70.9,66.6,61.1,100,76,45,30.04,29.92,10,1,12,0.00
2013-6-19,85.7,77.6,66.9,69.8,66.7,63.6,95,70,51,30.03,29.92,13,2,14,0.00
2013-6-20,91.6,81.8,72.5,76.3,71.1,65.3,83,71,57,30.01,29.90,14,3,19,0.00
2013-6-21,92.3,83.9,76.1,74.3,70.9,66.4,86,66,44,30.02,29.93,19,2,19,0.00
2013-6-22,91.0,82.7,73.7,71.9,69.1,65.6,87,65,45,30.00,29.86,19,3,19,0.00
2013-6-23,91.4,83.5,75.8,72.8,70.2,67.1,85,66,47,29.93,29.84,19,3,21,0.00
2013-6-24,91.4,82.6,75.3,72.0,69.7,66.5,84,66,48,30.00,29.87,26,3,26,0.00
2013-6-25,89.0,82.4,76.1,73.1,71.2,68.6,84,69,56,29.91,29.77,19,3,22,0.00
2013-6-26,94.9,85.2,77.7,77.0,72.6,67.2,77,67,54,29.89,29.78,19,3,20,0.00
2013-6-27,97.1,87.3,76.8,78.7,74.1,63.2,88,66,50,29.93,29.81,14,1,19,0.00
2013-6-28,96.1,85.6,75.8,72.3,65.9,56.5,77,54,33,29.95,29.80,14,2,16,0.00
2013-6-29,90.7,80.5,68.6,63.0,57.6,52.8,72,48,28,29.92,29.80,19,2,19,0.00
2013-6-30,82.8,74.4,64.8,60.2,56.3,53.5,76,54,40,29.98,29.86,17,2,18,0.00
2013-7-1,83.8,73.2,62.4,61.7,55.2,44.8,82,56,29,30.07,29.98,12,2,14,0.00
2013-7-2,84.0,72.9,59.5,58.8,53.2,46.8,78,52,29,30.11,30.03,12,1,12,0.00
2013-7-3,84.7,74.2,59.6,60.3,53.2,47.9,79,50,30,30.11,29.98,12,1,12,0.00
2013-7-4,89.0,76.5,65.3,65.6,59.1,51.3,76,56,36,30.04,29.92,13,2,14,0.05
2013-7-6,87.4,82.6,77.6,66.9,64.5,62.3,62,54,49,29.96,29.90,10,1,10,0.00
2013-7-7,92.9,82.9,72.1,71.0,66.3,62.1,79,59,38,30.02,29.92,13,1,14,0.00
2013-7-8,94.0,84.1,74.6,75.1,70.4,66.0,79,64,48,30.06,29.97,12,1,14,0.00
2013-7-9,97.3,87.0,76.8,74.0,70.7,67.9,79,60,40,30.04,29.91,19,3,19,0.00
2013-7-10,101.0,88.7,78.8,72.3,68.3,64.4,68,52,31,29.97,29.86,11,1,12,0.00
2013-7-11,97.3,86.5,76.1,75.8,71.9,64.2,87,64,38,29.97,29.86,10,1,12,0.00
2013-7-12,94.5,85.1,76.5,74.7,70.9,68.5,81,64,46,29.99,29.91,12,2,13,0.00
2013-7-13,93.8,83.6,73.7,69.7,66.2,60.8,78,57,42,30.02,29.89,12,2,12,0.01
2013-7-14,87.2,78.5,71.1,65.1,62.3,57.5,79,58,38,30.04,29.91,12,1,13,0.01
2013-7-15,79.8,72.0,64.7,69.5,65.9,62.4,100,82,63,30.17,30.03,17,2,19,0.43
2013-7-16,88.0,76.7,69.4,73.0,70.0,64.9,100,81,52,30.23,30.16,14,1,17,0.02
2013-7-17,92.5,82.1,72.3,73.2,70.5,66.5,99,71,46,30.28,30.16,12,1,12,0.00
2013-7-18,95.4,84.8,73.9,74.0,70.2,66.6,89,64,42,30.18,29.99,10,0,12,0.00
2013-7-19,95.1,85.1,74.9,73.2,70.1,65.7,85,63,40,30.02,29.87,14,1,16,0.00
2013-7-20,95.1,83.8,72.8,74.5,70.2,65.2,88,66,38,29.93,29.80,12,2,13,0.00
2013-7-21,89.7,77.7,70.6,77.6,72.6,67.7,100,86,62,29.94,29.79,13,2,13,0.67
2013-7-22,94.3,84.3,74.6,77.0,72.9,68.0,94,69,54,29.92,29.75,16,3,19,0.91
2013-7-23,98.7,88.7,71.5,76.8,73.2,64.3,89,61,43,29.93,29.74,30,2,32,0.54
2013-7-24,88.0,77.7,68.3,71.9,69.4,63.2,100,77,54,30.00,29.83,26,2,32,0.35
2013-7-25,86.1,78.8,70.6,73.4,69.9,64.5,96,75,53,30.08,29.98,7,1,8,0.00
2013-7-26,79.2,74.6,68.8,74.7,71.4,68.3,100,90,73,30.04,29.92,17,1,17,0.79
2013-7-27,83.6,73.8,67.1,72.0,65.5,59.0,100,78,49,30.08,29.95,10,0,12,0.01
2013-7-28,83.8,74.7,66.3,69.9,64.8,60.4,87,72,58,30.03,29.94,12,1,12,0.00
2013-7-29,88.4,79.3,70.3,75.3,70.9,65.7,89,76,61,30.00,29.90,16,2,19,0.01
2013-7-30,90.5,79.5,70.8,76.1,72.6,69.6,100,81,58,30.02,29.92,17,1,17,0.46
2013-7-31,89.7,82.1,75.3,77.6,73.5,70.2,100,76,57,30.06,29.98,13,1,13,0.00
2013-8-1,89.5,80.7,70.3,71.4,68.2,60.7,98,68,40,30.08,29.93,10,1,10,0.00
2013-8-2,94.7,83.7,76.1,78.7,74.1,68.3,89,74,57,29.95,29.79,13,1,14,0.00
2013-8-3,85.3,78.6,72.5,75.4,72.8,70.4,100,83,65,30.04,29.84,14,2,14,0.57
2013-8-4,85.5,80.0,76.0,78.2,74.8,69.8,96,84,67,30.08,29.93,14,2,14,0.00
2013-8-5,97.1,85.5,75.3,76.6,74.1,71.6,95,71,48,29.97,29.78,16,2,17,0.00
2013-8-6,98.0,88.2,76.7,76.7,72.4,68.4,84,61,44,29.84,29.74,14,1,14,0.00
2013-8-7,92.9,85.3,79.2,79.4,73.7,69.4,85,69,56,29.87,29.78,12,1,13,0.00
2013-8-8,83.8,78.1,70.8,77.3,73.1,69.8,100,85,70,29.94,29.81,13,1,17,0.19
2013-8-9,84.0,76.0,70.1,75.6,71.8,69.6,100,88,68,30.05,29.89,28,1,28,0.55
2013-8-10,84.9,75.0,67.3,71.9,69.0,64.9,100,82,62,30.12,30.02,10,1,11,0.00
2013-8-11,88.8,79.5,71.8,74.4,71.7,69.1,97,78,56,30.08,29.99,7,0,8,0.00
2013-8-12,84.5,77.7,71.8,76.4,73.0,68.8,100,86,67,30.07,29.93,17,1,17,0.49
2013-8-13,81.6,74.1,69.8,75.1,71.3,67.3,100,91,73,30.06,29.96,13,1,17,1.45
2013-8-14,81.8,73.0,65.6,70.4,64.5,59.4,97,76,53,30.13,30.03,10,1,10,0.00
2013-8-15,81.8,71.8,62.4,65.7,61.7,57.0,94,72,54,30.12,29.99,12,1,13,0.00
2013-8-16,81.1,71.8,64.0,66.2,64.0,60.8,100,78,54,30.11,29.98,8,1,13,0.21
2013-8-17,79.2,71.1,62.7,63.0,61.2,58.1,92,73,51,30.16,30.05,11,1,14,0.00
2013-8-18,84.3,74.3,62.9,68.3,63.3,60.4,97,70,48,30.14,30.03,8,0,10,0.00
2013-8-19,87.0,77.1,67.9,70.2,65.8,62.1,91,70,49,30.11,29.98,10,1,11,0.00
2013-8-20,89.5,79.2,69.8,71.2,65.7,60.6,82,64,43,30.07,29.98,8,1,10,0.00
2013-8-21,93.2,81.5,70.4,71.2,67.2,62.3,88,64,39,30.08,30.00,12,1,12,0.00
2013-8-22,92.7,82.9,72.8,72.8,69.0,64.6,83,64,42,30.09,29.97,11,1,11,0.00
2013-8-23,93.4,82.2,73.5,73.6,69.5,62.0,85,66,47,30.05,29.95,10,1,16,0.00
2013-8-24,92.3,82.4,74.0,75.4,71.2,68.4,90,70,51,30.11,30.00,13,2,13,0.00
2013-8-25,93.4,83.8,74.9,75.9,71.6,68.4,89,68,48,30.18,30.08,10,1,12,0.00
2013-8-26,91.6,82.9,73.7,73.4,70.5,65.7,90,67,49,30.18,30.07,12,1,12,0.00
2013-8-27,91.2,81.6,72.1,71.8,68.5,64.8,80,65,49,30.11,30.00,17,2,17,0.00
2013-8-28,92.5,83.3,73.0,73.6,70.9,68.7,94,68,49,30.06,29.98,17,1,17,0.00
2013-8-29,97.1,86.5,76.7,73.9,70.5,66.8,81,61,40,30.04,29.94,11,1,12,0.00
2013-8-30,98.5,87.3,77.0,72.4,69.8,66.4,77,58,38,29.98,29.83,14,1,14,0.00
2013-8-31,99.7,88.5,79.0,73.5,69.6,66.2,68,55,37,29.88,29.75,12,1,13,0.00
2013-9-1,92.3,83.6,76.5,76.2,70.9,66.4,79,66,54,29.90,29.76,10,1,12,0.01
2013-9-2,87.6,78.9,69.8,73.1,64.8,59.5,94,64,41,30.01,29.88,11,1,12,0.00
2013-9-3,88.8,76.3,64.5,66.5,62.0,56.0,95,64,35,30.07,29.97,7,0,10,0.00
2013-9-4,92.3,78.6,64.7,69.5,63.8,59.8,88,62,38,30.13,30.02,6,1,7,0.00
2013-9-5,93.2,80.1,69.3,67.4,63.4,59.5,80,59,36,30.17,30.05,7,1,7,0.00
2013-9-6,93.4,81.5,70.3,68.8,63.9,60.1,72,57,38,30.12,29.97,10,1,10,0.00
2013-9-7,98.0,84.4,71.8,70.4,64.5,59.8,72,53,32,30.02,29.89,10,1,12,0.00
2013-9-8,96.8,85.6,74.7,71.1,66.3,61.5,73,54,34,29.95,29.85,17,1,17,0.00
2013-9-9,94.7,83.8,72.7,69.2,64.5,59.8,71,54,34,29.97,29.89,17,1,17,0.00
2013-9-10,93.4,82.4,74.6,68.6,64.3,61.3,69,55,38,30.09,29.94,14,1,19,0.00
2013-9-11,94.7,83.9,72.1,67.1,63.7,59.7,76,53,33,30.14,30.00,10,0,12,0.00
2013-9-12,94.3,81.7,72.7,70.4,68.2,64.4,87,65,41,30.09,29.97,12,1,14,0.00
2013-9-13,84.9,75.4,66.3,69.2,59.3,51.1,89,60,37,30.08,29.96,12,1,12,0.00
2013-9-14,85.3,72.8,60.1,60.4,56.3,52.1,79,58,41,30.06,29.94,10,1,12,0.00
2013-9-15,88.8,77.5,65.3,67.8,59.7,50.9,66,55,45,30.04,29.95,13,1,14,0.00
2013-9-16,83.6,75.0,69.1,70.8,68.1,65.3,100,80,58,30.18,30.01,10,1,11,0.10
2013-9-17,82.0,73.0,67.4,69.9,67.8,65.2,100,85,60,30.14,29.95,12,1,17,0.13
2013-9-18,91.6,80.1,73.0,73.7,68.9,65.6,85,70,49,29.99,29.86,13,2,18,0.00
2013-9-19,89.0,77.9,69.1,72.1,69.5,64.7,96,76,55,29.95,29.83,26,2,29,0.10
2013-9-20,70.6,67.3,59.5,69.4,62.4,54.1,100,86,58,30.02,29.92,14,1,18,0.38
2013-9-21,78.6,65.5,52.5,59.2,53.5,49.2,100,69,40,30.06,29.93,7,0,10,0.01
2013-9-22,79.2,68.1,56.5,53.9,50.1,44.0,82,55,32,29.99,29.84,8,1,10,0.00
2013-9-23,79.9,69.3,57.6,57.2,53.7,48.9,82,59,39,29.91,29.77,13,2,14,0.00
2013-9-24,81.1,70.6,63.1,57.8,55.7,51.3,76,60,42,29.91,29.85,21,3,21,0.00
2013-9-25,84.3,70.2,57.3,61.1,58.0,55.0,100,68,38,29.92,29.79,7,0,7,0.00
2013-9-26,90.7,76.6,63.7,64.1,59.7,56.6,82,58,34,29.90,29.80,14,3,14,0.00
2013-9-27,88.2,77.7,66.9,65.1,60.6,54.8,82,58,35,29.96,29.83,14,2,19,0.00
2013-9-28,77.9,67.4,56.0,69.6,61.8,55.7,100,84,60,30.11,29.83,17,2,19,1.01
2013-9-29,75.3,62.2,52.8,62.4,53.8,47.6,100,78,38,30.12,29.95,14,0,17,0.02
2013-9-30,82.0,68.1,53.2,65.1,56.2,47.9,95,69,31,29.96,29.83,11,1,12,0.00
2013-10-1,86.5,75.1,66.6,72.2,66.7,60.7,100,78,44,29.96,29.84,14,1,14,0.00
2013-10-2,85.7,76.4,69.6,71.9,69.4,66.4,100,81,57,30.00,29.85,12,1,13,0.00
2013-10-3,85.7,76.9,70.3,72.8,69.4,66.7,96,79,61,29.90,29.75,14,2,17,0.00
2013-10-4,86.5,78.2,71.8,70.9,68.8,65.2,94,74,54,29.87,29.77,19,3,20,0.00
2013-10-5,76.8,58.2,48.8,66.7,46.4,36.8,100,67,37,30.12,29.86,22,2,22,0.76
2013-10-6,66.8,56.4,47.6,44.3,40.3,33.0,78,56,39,30.09,30.01,19,3,20,0.00
2013-10-7,73.9,59.4,46.4,45.3,41.0,35.5,77,53,28,30.21,30.07,10,0,10,0.00
2013-10-8,74.2,63.6,52.5,51.4,47.7,43.3,79,57,35,30.16,30.03,10,2,14,0.00
2013-10-9,76.8,64.8,52.8,57.8,51.8,46.7,83,64,49,30.11,30.01,10,2,14,0.00
2013-10-10,79.2,67.5,56.6,61.5,55.4,50.1,85,67,48,30.08,29.88,16,2,16,0.00
2013-10-11,81.1,70.9,62.0,68.3,62.9,54.6,90,76,63,29.89,29.79,18,2,21,0.00
2013-10-12,73.2,66.1,56.7,68.2,56.7,50.6,95,73,50,30.16,29.85,14,2,18,0.00
2013-10-13,74.6,66.5,60.2,63.4,55.6,49.0,75,68,63,30.30,30.16,11,1,12,0.00
2013-10-14,64.8,62.2,57.8,64.5,58.8,51.5,100,89,68,30.21,29.92,14,3,14,0.94
2013-10-15,66.9,58.6,53.9,66.9,52.2,44.0,100,80,61,30.12,29.88,17,2,17,0.03
2013-10-16,60.1,52.0,43.2,46.8,41.6,38.5,86,69,49,30.21,30.08,14,2,17,0.00
2013-10-17,67.1,53.5,41.8,46.7,43.9,40.7,100,73,43,30.12,29.98,11,1,11,0.00
2013-10-18,55.4,47.7,39.9,46.3,43.3,38.3,100,85,67,30.19,30.04,11,2,17,0.23
2013-10-19,63.7,47.7,33.7,41.4,36.7,32.3,100,70,32,30.22,30.04,12,1,14,0.00
2013-10-20,70.1,56.1,43.9,44.3,40.1,35.3,79,58,31,30.04,29.86,17,2,20,0.00
2013-10-21,58.6,52.1,43.5,46.2,40.9,35.9,83,66,45,30.15,29.95,18,1,18,0.00
2013-10-22,72.0,55.2,41.6,46.4,40.9,36.5,83,62,34,30.15,30.00,19,2,19,0.00
2013-10-23,66.4,53.7,41.3,45.7,40.9,35.6,82,63,41,30.22,30.03,10,0,11,0.00
2013-10-24,56.6,48.9,41.9,43.5,36.9,31.3,89,64,45,30.45,30.10,13,1,17,0.00
2013-10-25,58.6,47.3,35.9,39.9,33.0,29.1,78,59,37,30.53,30.25,13,1,13,0.00
2013-10-26,66.0,54.9,47.9,54.2,47.0,38.6,96,75,64,30.25,30.11,12,1,14,0.00
2013-10-27,68.6,54.1,38.5,53.5,38.1,25.1,98,60,22,30.15,30.01,7,0,7,0.00
2013-10-28,69.3,60.6,52.9,58.2,55.2,48.8,100,84,61,30.17,30.02,12,2,13,0.00
2013-10-29,73.9,67.9,61.2,68.0,64.1,57.0,97,88,78,30.09,29.93,18,3,20,0.01
2013-10-30,70.1,66.8,63.4,67.5,64.9,60.8,100,94,86,30.00,29.76,19,3,21,0.05
2013-10-31,69.3,61.9,51.0,65.3,55.0,43.5,100,80,49,29.82,29.56,24,3,28,0.01
2013-11-1,69.8,56.6,47.1,46.3,41.4,36.2,82,59,31,30.07,29.82,19,2,20,0.00
2013-11-2,60.9,51.5,44.6,39.5,34.4,28.7,69,53,30,30.30,30.07,18,2,24,0.00
2013-11-3,62.4,52.0,40.6,42.5,37.6,33.0,79,59,42,30.24,29.99,17,2,19,0.00
2013-11-4,64.5,56.5,50.8,53.9,49.0,41.4,94,77,62,30.13,29.98,17,3,24,0.00
2013-11-5,63.4,58.8,54.8,62.9,58.5,53.3,100,99,92,30.11,29.92,18,3,20,0.00
2013-11-6,63.2,44.9,36.8,62.9,38.8,33.9,100,80,54,30.43,29.93,17,3,21,0.02
2013-11-7,64.5,48.0,33.5,40.8,35.7,31.4,100,68,30,30.52,30.36,8,1,10,0.00
2013-11-8,66.3,54.2,42.1,40.3,36.5,30.7,77,54,27,30.36,30.07,26,3,26,0.00
2013-11-9,67.1,56.9,50.5,45.8,43.1,39.5,75,61,38,30.29,30.08,13,1,14,0.00
2013-11-10,68.9,57.5,48.8,48.1,45.1,43.2,83,65,41,30.39,30.27,7,0,10,0.00
2013-11-11,70.9,57.2,42.9,55.8,48.1,36.2,92,73,51,30.49,30.17,20,2,27,0.00
2013-11-12,42.9,33.6,27.2,36.1,18.7,11.6,78,55,35,30.85,30.49,19,4,21,0.00
2013-11-13,51.1,36.9,23.3,24.8,19.0,14.3,76,51,26,30.77,30.36,17,2,17,0.00
2013-11-14,54.5,43.8,33.7,33.9,25.1,20.0,63,49,31,30.36,30.05,18,3,24,0.00
2013-11-15,62.0,51.6,43.2,51.0,44.2,33.2,93,77,58,30.05,29.82,18,3,18,0.14
2013-11-16,73.5,64.7,53.5,64.6,58.7,50.4,99,82,60,29.83,29.56,28,6,28,0.03
2013-11-17,72.8,66.1,51.4,65.2,41.6,17.9,84,46,19,30.13,29.53,26,5,26,0.00
2013-11-18,62.7,51.5,40.6,37.9,28.1,20.1,65,43,20,30.31,30.12,12,1,12,0.00
2013-11-19,56.9,53.2,48.9,32.0,27.1,21.4,48,37,27,30.25,30.03,20,4,20,0.00
2013-11-20,59.8,53.8,45.1,46.2,35.8,27.3,64,51,38,30.04,29.89,21,3,28,0.10
2013-11-21,58.7,49.1,33.1,52.7,45.6,31.0,99,89,57,30.41,29.96,19,2,21,0.10
2013-11-22,32.9,30.9,29.3,31.5,26.8,23.6,96,85,74,30.62,30.41,20,3,21,0.09
2013-11-23,38.5,32.8,26.0,26.9,19.8,8.3,85,60,30,30.75,30.61,19,4,19,0.00
2013-11-24,30.4,25.9,21.6,16.3,12.7,9.3,66,57,50,30.77,30.42,12,1,12,0.00
2013-11-25,35.2,32.4,29.4,30.5,24.5,13.5,88,73,49,30.43,30.26,7,0,10,0.00
2013-11-26,47.0,36.8,28.7,29.7,24.4,10.8,81,62,41,30.45,30.23,19,2,21,0.00
2013-11-27,38.5,28.7,19.4,13.8,9.7,5.8,66,46,27,30.55,30.37,19,1,19,0.00
2013-11-28,58.3,40.7,28.2,30.4,21.9,11.9,64,48,32,30.49,30.33,16,2,17,0.00
2013-11-29,76.2,41.8,31.5,30.0,25.4,22.0,69,54,29,30.54,30.32,14,1,19,0.00
2013-11-30,60.9,48.5,39.9,46.0,38.7,28.0,90,69,55,30.34,30.13,21,2,21,0.00
2013-12-1,55.0,49.7,43.5,51.9,47.7,43.2,100,93,83,30.14,29.92,5,0,6,0.00
2013-12-2,59.2,49.9,44.1,49.2,46.8,44.1,100,90,66,29.92,29.69,12,1,13,0.00
2013-12-3,59.3,50.2,43.6,53.4,48.3,43.6,100,94,73,29.69,29.53,11,1,11,0.01
2013-12-4,49.1,41.4,29.1,48.6,36.7,20.1,100,84,68,30.09,29.51,17,4,19,0.01
2013-12-5,29.3,23.8,20.3,20.4,13.4,9.2,81,65,50,30.38,30.09,17,4,21,0.00
2013-12-6,21.8,18.3,12.8,15.6,9.7,0.2,86,70,50,30.68,30.34,20,4,20,0.00
2013-12-7,21.1,15.2,6.9,11.2,3.6,-1.4,70,60,50,30.75,30.38,11,2,11,0.00
2013-12-8,29.4,25.5,21.0,27.5,21.1,10.8,97,83,64,30.37,30.07,14,2,14,0.00
2013-12-9,27.0,22.3,18.1,21.1,15.0,10.9,82,73,57,30.49,30.26,12,2,17,0.00
2013-12-10,34.7,23.7,13.3,19.8,14.3,8.8,86,68,48,30.53,30.31,11,1,14,0.07
2013-12-11,36.0,27.9,20.2,24.7,18.2,12.4,86,67,51,30.68,30.33,14,1,17,0.04
2013-12-12,41.5,29.8,17.0,99.9,19.8,9.5,78,66,50,30.69,30.28,14,1,16,0.05
2013-12-13,39.5,36.5,32.9,38.6,32.4,25.5,100,85,68,30.28,29.87,19,2,19,0.50
2013-12-14,38.9,33.5,25.7,38.9,28.6,21.1,100,83,61,30.33,29.88,19,2,19,0.02
2013-12-15,59.0,39.6,23.3,33.5,26.1,20.3,90,62,30,30.33,30.15,17,2,17,0.00
2013-12-16,68.1,50.0,37.5,33.5,30.2,27.5,69,49,25,30.18,30.07,14,3,14,0.00
2013-12-17,58.9,46.3,33.5,34.2,30.3,26.8,79,56,33,30.35,30.16,12,1,12,0.00
2013-12-18,67.8,53.0,40.5,42.9,34.1,26.8,62,50,30,30.30,29.92,19,3,21,0.00
2013-12-19,62.4,58.1,52.8,56.7,50.2,41.6,86,75,60,29.92,29.68,21,6,25,0.00
2013-12-20,61.6,37.8,27.8,57.6,32.0,20.7,93,79,68,30.01,29.67,24,4,26,0.03
2013-12-21,31.9,30.6,28.1,31.9,29.7,25.6,100,97,90,29.91,29.55,10,0,10,0.00
2013-12-22,31.2,28.5,26.3,29.7,24.3,21.0,94,84,79,30.47,29.83,0,0,1,0.00
2013-12-23,27.5,23.8,-0.1,22.0,19.1,-4.5,87,82,75,30.68,30.46,0,0,0,0.00
2013-12-24,41.2,27.7,14.6,31.6,22.0,10.7,91,80,65,30.68,30.25,14,1,14,0.30
2013-12-25,39.9,32.8,26.3,33.3,28.7,23.6,94,85,72,30.48,30.33,10,1,11,0.21
2013-12-26,50.1,36.5,23.9,35.3,28.5,23.2,100,76,43,30.48,30.33,10,2,12,0.09
2013-12-27,60.4,43.7,33.7,32.9,28.1,24.1,72,56,29,30.46,30.32,11,2,11,0.00
2013-12-28,58.1,45.8,35.9,37.7,32.9,27.3,78,62,42,30.32,29.95,16,2,16,0.00
2013-12-29,45.2,30.8,20.2,36.3,19.7,2.7,77,64,44,30.38,29.96,24,4,25,0.00
2013-12-30,37.9,25.4,13.3,15.6,9.4,1.4,66,51,36,30.44,30.31,8,1,10,0.00
2013-12-31,55.3,38.6,24.5,25.4,18.9,12.6,67,48,22,30.44,30.19,20,3,21,0.00
2014-1-1,53.6,37.8,17.5,34.8,25.5,12.0,82,62,46,30.33,29.92,22,4,28,0.00
2014-1-2,30.7,20.6,11.6,13.3,8.8,3.1,80,61,46,30.57,30.33,14,3,20,0.00